User: anonymous   Login
Location: Hickory_CSC
(35.7330°N, 81.3330°W)
Time: 22:02:35
(UTC-05:00)
Language:

Cosmos 1356 Rocket - Orbit

View from above orbital plane
View from above orbital plane
View from above satellite
View from above satellite

Ground track
Ground track

The orbit data is extracted from the following two-line orbital elements,

1 13154U 82039B   17023.49816724  .00000361  00000-0  27987-4 0  9997
2 13154  81.1824  33.8001 0041219  44.0374 316.4115 14.98232225882078
Epoch (UTC): 23 January 2017 11:57:21
Eccentricity: 0.0041219
inclination: 81.1824°
perigee height: 544 km
apogee height: 601 km
right ascension of ascending node: 33.8001°
argument of perigee: 44.0374°
revolutions per day: 14.98232225
mean anomaly at epoch: 316.4115°
orbit number at epoch: 88207

The dashed part of the orbit path shows where the satellite is in the earth's shadow,  

DLR